Theta_e
282 283 283 283 283 282 282 282 283 282 284 283 280 280 282 281 276 273 281 283 281 283 285 287 287 288 288 289 290 291 292 293 293 293 293 294 294 295 295 295 296 296 296 297 297 297 298 298 297 298 298 297 296 296 297 300 301 302 303 302 303 303 302 302 302 302 302 302 302 302 301 301 301 302 303 303 303 304 305 306 309 309 310 312 311 311 312
280 281 282 283 282 281 282 282 282 282 282 282 282 282 283 282 281 283 283 283 282 285 286 288 289 290 290 290 291 292 291 291 291 292 292 293 293 293 294 294 295 296 297 297 297 297 297 297 297 297 297 298 299 300 300 299 298 300 300 301 302 302 302 302 302 301 301 300 301 301 300 301 301 301 300 301 301 301 302 303 304 304 305 307 309 310 311
276 279 281 282 282 281 280 281 282 282 282 282 283 282 283 283 282 283 283 281 281 286 289 289 290 291 291 291 289 290 290 291 291 291 291 291 292 293 294 294 295 296 297 297 297 297 297 298 298 299 300 300 300 299 299 299 300 299 299 301 301 300 301 301 301 300 299 300 299 299 300 300 300 299 300 299 299 299 299 300 301 302 302 305 307 307 308
274 278 278 279 280 280 280 280 281 281 281 279 280 279 282 280 279 280 280 279 279 285 289 289 290 290 289 289 289 289 290 290 290 290 290 291 292 292 293 294 295 295 296 297 297 297 297 298 299 298 299 298 297 298 299 300 300 300 301 302 301 301 301 301 300 299 299 297 297 299 299 299 299 299 297 296 297 297 296 297 298 295 299 302 304 305 307
272 277 278 277 277 276 273 275 279 281 282 282 282 283 283 283 283 280 277 278 284 286 288 287 287 288 289 289 289 289 290 290 290 291 291 292 292 293 293 293 294 294 295 295 296 296 296 299 300 299 299 298 298 299 298 298 299 299 300 301 301 302 302 301 300 300 297 297 298 298 299 299 299 297 296 295 295 295 296 295 292 296 298 299 300 301 302
273 276 276 276 273 267 269 282 284 283 281 281 279 280 282 283 284 282 284 284 286 286 286 286 286 287 287 288 290 291 290 290 291 291 292 292 293 292 292 293 294 294 295 295 296 296 296 296 296 296 297 298 299 298 298 298 298 299 300 300 300 301 301 301 301 299 296 296 298 299 299 298 296 296 294 296 295 293 290 290 293 295 293 295 297 299 301
273 275 274 271 266 268 280 284 285 285 285 284 282 282 284 284 285 285 284 285 286 287 288 288 288 289 289 290 290 290 291 291 290 291 291 292 292 292 293 294 294 294 294 295 295 295 296 297 297 297 298 298 299 300 301 300 300 300 299 299 300 301 301 301 300 297 297 297 298 298 298 296 295 295 295 295 294 293 292 292 292 293 293 292 294 295 297
276 273 271 265 267 277 280 282 284 286 285 284 282 281 283 285 285 285 284 285 286 287 288 289 290 290 291 291 292 292 292 292 292 291 292 293 293 291 293 294 295 295 295 295 295 295 296 296 296 297 297 298 298 299 300 300 300 299 299 299 299 298 298 299 299 297 297 297 297 297 297 296 295 295 295 295 295 294 291 291 290 290 290 290 292 292 294
271 273 272 271 276 275 277 277 280 281 279 279 279 275 279 284 285 285 285 285 286 287 287 288 289 290 289 288 289 292 292 293 293 293 293 293 294 294 294 294 294 293 293 292 293 293 293 294 295 296 296 296 296 296 297 298 298 298 298 298 298 299 298 298 297 297 297 298 297 297 296 295 295 295 295 295 294 293 291 292 291 290 291 291 291 292 292
277 272 270 271 270 267 273 279 283 285 285 285 284 280 277 284 285 286 285 284 285 286 287 288 288 288 285 283 285 288 290 292 292 294 293 293 292 291 290 289 288 288 289 289 290 290 291 291 292 292 291 291 292 293 293 294 295 295 296 296 296 296 296 296 297 297 297 296 296 296 295 295 295 295 294 294 294 293 292 293 292 292 292 291 291 292 293
276 273 270 269 268 271 278 279 283 285 286 285 285 279 274 282 284 285 285 284 285 285 285 285 286 284 281 282 286 289 290 292 292 290 288 288 288 287 287 285 285 286 286 286 287 288 288 288 287 287 287 288 288 289 290 291 292 293 293 290 289 289 290 292 293 295 295 295 295 295 295 295 295 294 294 294 294 292 292 292 293 293 291 292 292 292 293
275 274 271 269 273 272 278 281 283 284 285 285 281 270 271 280 283 285 285 285 285 285 286 286 285 283 280 281 284 290 291 289 286 285 285 284 285 284 284 284 283 283 283 284 284 285 286 285 283 284 284 285 284 286 287 288 289 289 287 286 286 287 289 290 292 293 294 294 294 293 294 294 294 294 293 293 292 291 290 291 292 292 291 292 292 293 293
275 275 272 274 275 281 283 283 284 284 286 282 273 268 275 280 283 285 284 284 285 283 283 284 281 284 286 287 289 288 287 286 284 283 283 283 283 282 282 281 282 280 281 282 283 283 284 281 280 281 282 281 281 283 283 284 284 284 284 283 284 285 287 288 290 291 292 292 292 293 293 293 293 292 291 291 290 289 290 290 289 290 290 290 291 292 291
273 274 272 272 275 281 281 283 283 285 280 272 272 278 280 282 282 283 282 282 283 281 280 282 282 284 285 287 285 285 285 283 282 281 281 280 280 279 279 280 279 278 279 280 280 280 280 279 279 279 279 279 279 280 281 281 281 282 281 282 283 284 285 286 287 288 289 290 290 291 291 291 290 291 290 289 289 289 288 288 289 289 289 289 290 290 290
274 273 271 270 267 277 282 282 281 282 274 276 278 279 281 283 283 282 281 282 281 279 279 280 281 281 283 284 282 282 282 281 280 279 278 278 277 277 277 277 277 277 277 278 278 278 278 278 277 278 278 277 278 278 278 278 279 280 280 281 282 283 284 285 286 287 287 287 288 289 289 288 288 288 288 288 288 288 287 288 288 288 288 288 288 288 287
269 270 268 268 274 277 281 282 275 280 281 283 282 280 279 282 283 281 280 281 281 280 279 279 279 279 281 281 280 280 280 280 278 278 277 277 276 276 276 276 275 276 276 276 276 276 277 276 276 277 276 275 275 275 275 277 277 277 278 279 281 282 284 285 286 286 286 287 287 287 287 287 286 286 287 286 286 287 285 287 287 287 287 287 286 286 286
271 270 274 278 280 281 282 282 282 282 283 282 281 281 281 281 281 282 280 280 280 279 279 279 278 278 280 278 279 278 278 278 277 276 276 276 275 275 274 274 274 274 274 274 274 274 275 275 275 275 275 274 273 273 274 275 274 275 276 278 279 281 284 285 285 285 285 285 286 285 285 285 285 285 285 285 286 285 284 285 285 286 285 285 285 285 284
277 278 279 280 280 280 279 280 282 281 281 281 281 280 279 280 281 280 278 279 278 278 278 277 278 279 279 278 279 278 278 277 277 276 275 275 275 274 274 274 273 273 273 273 273 272 273 274 273 274 273 273 271 272 273 273 273 274 275 276 279 282 285 285 286 286 284 284 284 284 284 284 284 284 284 284 284 284 284 283 284 285 284 284 284 283 283
270 267 274 275 276 277 277 277 279 279 280 280 280 279 279 280 279 278 278 278 277 277 277 277 277 277 277 277 278 278 278 278 276 275 274 274 274 273 272 273 273 272 272 271 271 271 271 273 272 272 272 272 272 271 271 271 272 272 274 277 280 284 285 285 286 286 285 285 285 284 282 282 282 282 283 283 282 282 281 281 282 283 284 284 283 284 284
270 270 274 275 276 276 277 277 277 276 277 279 280 280 279 279 278 277 277 278 277 278 276 277 275 275 276 276 275 275 275 275 274 273 273 273 273 273 272 272 272 271 271 270 270 270 270 271 271 271 271 271 271 270 270 270 270 271 274 277 280 283 283 284 284 285 285 285 285 283 282 282 281 282 282 283 282 281 281 280 280 281 282 282 282 283 282
272 274 275 275 275 275 273 273 275 278 278 278 278 278 278 278 278 278 278 278 277 277 276 276 274 274 275 275 274 273 274 273 272 272 272 272 271 271 271 271 271 270 270 269 269 269 269 270 269 269 270 270 270 269 269 269 269 270 273 276 279 282 282 282 282 283 284 284 284 283 282 281 281 281 281 282 282 282 283 283 281 281 281 282 282 282 283
267 268 271 272 269 269 273 276 278 277 276 276 277 277 277 277 277 277 276 275 276 276 275 274 274 272 273 273 273 272 273 271 271 271 271 271 271 270 271 270 269 269 269 268 268 268 268 269 268 268 268 269 269 268 268 268 269 269 271 274 277 277 279 280 281 281 282 283 283 282 282 281 280 280 282 282 282 281 281 283 284 285 285 282 282 282 282
267 272 274 275 274 274 276 277 278 278 278 278 277 277 277 277 276 274 273 273 273 274 275 274 273 272 272 272 272 271 272 271 271 271 270 269 269 269 269 268 268 268 269 269 268 267 268 268 267 267 267 267 267 267 267 268 268 269 270 272 274 274 275 276 278 279 279 279 280 281 281 280 280 279 278 280 282 283 283 283 284 284 284 285 285 285 284
273 275 275 276 275 274 276 277 278 279 279 278 278 277 277 275 274 273 272 272 271 272 273 273 273 272 272 272 272 271 271 271 270 270 270 270 269 269 269 268 268 267 268 268 268 267 268 267 266 266 266 266 266 266 266 267 267 269 269 270 271 272 273 274 276 277 277 277 277 277 278 279 280 279 278 277 278 280 281 282 283 283 284 284 284 284 284
272 276 276 276 276 276 277 278 278 279 279 279 277 276 274 273 272 272 271 271 271 271 271 271 271 272 271 271 271 270 270 270 270 270 270 269 269 268 268 267 267 268 268 268 268 267 267 266 266 266 265 265 265 265 265 265 266 267 268 269 270 271 271 272 273 274 275 275 276 276 276 276 276 277 277 277 276 276 278 280 280 281 282 283 283 283 283
276 276 277 277 277 277 277 277 277 276 275 276 276 276 276 275 273 273 272 272 271 271 270 270 269 270 272 270 270 271 270 270 270 270 269 268 267 267 266 266 267 268 269 267 267 266 266 266 265 265 265 265 265 264 264 264 265 266 267 268 269 270 271 271 271 272 272 273 273 274 275 275 276 276 276 276 276 277 276 276 276 277 279 280 281 282 282
277 277 276 275 274 275 277 275 274 277 276 276 276 276 275 274 274 273 273 272 271 271 269 269 269 269 270 270 269 270 269 270 269 268 268 267 266 266 266 267 267 268 268 267 266 266 266 265 265 264 264 265 264 264 264 264 264 265 266 267 268 269 270 271 270 270 271 271 272 272 273 273 274 274 274 275 275 275 274 273 273 272 273 274 277 280 280
277 276 274 271 272 273 274 275 276 276 276 275 276 276 276 274 273 272 271 270 270 270 269 268 267 267 267 268 268 267 269 268 267 267 267 266 266 266 266 266 267 267 267 266 266 265 265 265 264 264 264 264 264 264 263 263 264 264 265 266 267 268 268 269 269 269 270 270 271 271 271 272 272 273 273 273 273 273 274 273 273 272 272 273 274 276 277
272 269 271 270 271 272 272 273 274 275 272 272 272 274 274 272 271 270 269 268 268 267 266 266 267 266 265 265 266 265 266 267 267 266 266 266 265 265 265 265 266 266 265 265 264 264 264 264 263 263 263 264 264 264 263 263 263 264 264 265 265 266 267 267 268 268 268 269 269 270 271 271 271 271 272 272 273 272 272 272 272 273 273 273 273 273 274
268 268 266 267 267 268 269 269 272 272 270 269 270 270 270 271 270 267 267 266 266 265 265 265 265 264 264 263 264 264 264 264 266 266 265 264 264 264 263 264 264 265 264 263 263 263 263 263 262 262 262 263 263 263 263 263 263 264 264 264 264 265 266 267 267 268 268 267 268 270 269 270 270 270 271 271 271 272 272 272 272 272 271 270 271 270 269
263 263 263 264 265 267 269 270 269 268 268 267 268 267 267 268 267 266 265 265 264 264 264 263 263 262 262 262 262 263 264 264 265 265 264 263 262 262 262 262 261 261 262 261 262 262 262 262 261 261 262 262 263 263 262 262 262 263 263 264 264 265 266 267 267 267 267 267 268 268 268 268 268 269 269 270 270 271 271 271 270 270 269 268 268 268 269
261 261 262 264 264 266 269 269 268 266 265 265 264 263 263 263 263 263 263 262 263 262 262 262 261 260 260 261 262 262 262 262 262 263 263 261 261 261 260 260 260 262 262 262 261 261 261 261 260 261 261 261 262 262 262 261 262 262 262 263 263 263 265 266 265 266 267 267 267 267 267 267 267 268 268 269 269 269 270 270 269 268 267 267 267 267 269
260 262 263 261 260 261 263 265 265 264 263 263 262 262 262 262 262 262 262 262 261 262 261 260 260 260 260 260 260 261 261 261 262 263 261 260 259 259 259 259 258 258 260 261 260 260 260 259 260 261 261 261 262 262 261 261 261 261 261 262 262 263 264 265 265 265 266 266 266 266 266 266 266 266 267 268 268 269 269 269 269 268 267 266 266 267 268
260 260 261 259 259 259 259 260 263 264 264 264 263 262 261 261 260 261 260 260 260 260 259 259 259 259 258 258 259 260 260 259 259 260 259 258 258 258 258 258 257 257 258 258 259 259 259 259 260 260 261 261 261 261 261 261 261 260 260 261 261 262 262 263 264 264 264 265 265 266 265 266 266 266 266 267 267 267 268 268 268 267 266 266 265 266 267
261 262 262 261 260 260 260 260 260 260 261 262 261 261 261 260 259 259 260 259 258 258 259 259 259 258 258 258 258 258 258 258 259 259 258 258 257 257 257 256 256 257 257 257 257 258 258 259 260 260 260 260 259 259 260 261 261 260 259 260 261 262 262 263 263 263 264 264 265 265 265 265 266 266 266 267 266 267 267 267 266 266 265 265 265 265 265
260 261 261 261 259 258 259 259 258 258 259 259 259 260 259 259 258 257 257 257 258 258 258 258 258 257 257 257 257 257 257 257 258 257 257 256 256 256 255 254 255 255 255 254 254 256 258 258 261 261 260 259 259 259 260 261 261 259 259 260 260 261 262 262 263 263 263 263 264 264 264 265 265 265 265 265 265 265 265 265 265 265 264 264 264 264 264
260 259 259 259 259 259 259 258 258 257 258 258 258 258 258 258 257 256 257 256 257 256 256 257 256 256 255 256 256 257 257 257 257 256 255 255 255 254 253 254 255 256 258 255 255 257 257 258 260 260 259 256 257 257 260 262 260 259 258 258 259 260 260 261 261 262 262 263 263 263 264 263 261 262 263 263 263 263 263 263 264 264 264 263 263 263 263
261 260 259 259 259 258 259 258 258 257 257 257 258 258 257 256 256 256 256 256 256 256 256 255 255 255 255 255 256 256 256 256 255 254 253 253 252 252 252 253 255 256 255 254 256 257 257 260 260 258 257 257 257 257 259 261 261 259 257 258 258 259 259 260 260 261 261 261 262 261 260 260 260 260 260 261 261 261 262 262 262 262 262 262 262 262 262
261 262 261 260 259 258 258 259 259 258 257 256 256 257 257 256 256 256 255 255 256 256 255 254 254 254 255 254 254 254 254 253 253 252 251 251 251 250 252 254 254 254 254 255 256 257 259 259 258 257 258 257 258 258 259 260 260 258 257 257 257 257 259 259 259 260 260 261 260 260 260 260 260 260 260 260 260 260 261 261 261 260 259 259 259 260 260
260 260 259 259 259 259 258 257 258 257 257 256 255 255 255 254 255 254 254 255 254 254 252 251 252 252 253 252 251 252 252 251 251 250 250 250 250 250 252 253 252 254 255 258 257 257 259 260 258 256 258 258 258 259 259 259 260 258 257 257 257 257 257 258 257 258 258 258 259 260 259 259 259 260 260 260 259 259 257 258 257 257 257 257 257 257 258
259 258 258 258 259 258 257 256 256 256 256 256 255 255 254 253 253 252 254 253 253 251 251 251 251 251 251 251 251 251 251 251 251 250 250 248 250 253 255 256 254 251 252 254 255 256 258 258 256 257 257 258 258 259 259 259 258 255 256 256 256 257 257 257 257 257 257 257 258 257 257 258 258 258 259 258 258 257 257 257 256 256 255 255 255 256 256
257 256 256 257 256 256 256 255 255 254 255 254 253 252 251 251 251 251 251 251 250 250 251 251 252 252 252 251 251 250 250 250 250 251 250 252 253 253 254 255 253 252 257 257 257 256 255 253 254 257 256 258 258 259 259 258 256 255 255 255 255 256 256 256 256 256 257 256 256 255 256 256 256 256 257 257 256 256 256 256 255 255 254 255 255 254 254
254 254 254 254 254 254 253 253 252 253 252 252 250 248 248 248 248 248 248 249 248 249 250 250 250 251 250 249 248 248 249 250 250 251 251 252 253 253 254 252 253 254 257 257 257 255 256 254 253 254 258 258 258 259 259 257 256 255 254 254 255 255 255 255 255 255 255 254 254 255 254 255 255 255 256 255 255 255 255 255 255 255 255 254 253 254 255
253 253 252 252 252 252 251 251 251 251 251 252 250 247 246 245 245 246 246 247 247 247 247 247 247 247 248 248 247 249 250 251 250 251 250 252 251 249 248 248 250 254 257 256 256 256 256 256 255 257 258 258 259 259 257 254 253 253 252 253 253 253 254 254 254 254 254 254 254 253 253 255 254 254 253 254 253 253 254 255 255 255 255 255 254 255 256
251 251 250 249 249 249 249 249 248 249 249 248 246 246 246 245 245 245 245 245 246 247 248 246 246 247 247 246 247 247 250 250 250 250 249 250 251 250 251 254 254 254 256 257 256 256 256 255 257 258 258 258 258 258 255 253 252 253 252 253 252 252 252 253 254 255 254 253 253 253 254 253 252 252 251 252 255 254 253 253 253 253 253 252 253 253 255
249 248 247 248 247 246 247 246 246 244 244 244 246 248 247 245 245 247 245 245 246 247 246 245 245 246 246 246 246 247 247 249 250 250 251 252 251 251 253 255 253 255 256 256 255 256 255 258 258 258 258 258 258 256 253 253 253 251 251 252 251 252 252 252 252 252 252 252 252 252 252 251 251 252 251 251 251 253 253 256 254 252 252 252 252 252 252
246 246 245 244 245 245 243 243 242 243 243 245 249 250 249 246 246 247 247 246 244 245 245 245 245 246 245 245 246 246 248 248 250 250 249 249 251 252 254 255 255 256 256 255 254 255 255 257 257 257 257 257 257 255 252 252 252 252 251 251 252 251 252 251 251 250 250 250 253 254 255 254 252 251 253 254 252 252 252 252 251 252 253 254 253 254 254
245 245 246 244 245 244 242 242 244 246 245 247 245 248 247 245 247 247 247 245 246 244 246 245 247 244 245 244 242 244 246 245 247 249 248 247 248 249 250 249 253 255 255 256 256 256 257 257 257 256 256 256 256 254 253 252 251 251 252 252 251 251 250 250 251 250 250 252 252 250 250 249 249 250 251 253 254 254 253 252 252 252 253 252 251 252 252
243 244 244 243 243 243 245 247 247 248 247 246 246 247 245 247 246 247 246 246 245 247 248 246 245 245 245 247 246 246 246 247 248 248 249 250 250 250 250 252 253 254 254 253 252 252 255 256 256 255 255 255 253 251 252 251 251 252 252 252 251 251 251 250 250 250 249 250 251 251 251 250 249 247 248 251 251 252 253 251 250 250 250 251 251 252 253
245 243 246 247 247 248 247 248 248 246 245 247 247 246 246 245 247 249 248 248 248 249 249 248 247 248 250 247 247 247 246 247 249 249 249 249 248 249 251 251 252 254 255 253 251 252 254 254 254 254 254 251 252 251 250 251 250 251 251 252 251 250 250 253 255 255 252 251 250 251 251 251 249 251 252 250 250 251 250 250 250 254 256 254 251 251 252
248 248 249 248 247 247 244 245 248 247 244 245 244 245 246 246 247 249 247 249 248 248 250 250 248 248 248 248 250 249 247 247 248 251 251 250 249 252 253 252 252 253 254 252 250 250 249 247 248 250 251 251 249 249 250 250 250 250 251 250 249 250 250 251 251 249 249 250 250 250 250 250 249 248 248 249 250 250 250 251 250 250 249 249 248 249 249
248 248 247 246 246 246 245 247 244 243 243 244 244 244 245 246 246 247 247 251 246 247 248 248 249 248 247 248 248 248 248 250 250 249 251 250 250 248 251 253 251 250 249 247 248 248 247 247 251 252 253 249 247 247 252 252 250 249 249 251 252 250 251 251 251 250 249 250 249 249 249 249 249 248 248 248 249 250 250 249 249 248 249 248 247 248 247
Wind_Speed
12 11 12 12 11 8 9 11 9 11 8 9 11 12 11 11 10 12 10 11 11 14 14 17 17 16 15 15 15 13 16 17 16 16 16 17 18 18 18 18 18 18 17 17 17 15 14 13 13 14 13 11 7 6 5 5 5 6 6 6 7 8 8 9 10 9 8 7 7 7 7 6 7 7 8 8 8 8 7 7 8 8 7 8 8 9 9
10 10 12 11 13 12 12 13 14 14 14 15 13 13 12 12 13 12 12 15 18 13 13 15 18 18 15 16 14 14 14 16 17 16 16 17 18 18 18 18 17 16 16 17 17 17 14 12 12 11 10 8 7 6 6 5 5 6 5 7 8 9 9 10 10 8 8 6 6 7 6 7 8 8 8 8 8 8 8 8 8 7 7 7 8 9 10
7 9 11 12 14 13 15 14 14 14 12 12 12 12 12 14 16 15 18 19 20 12 11 15 17 18 15 14 15 16 16 15 16 16 17 17 16 16 15 15 16 17 17 15 14 14 15 14 11 10 8 7 5 6 6 6 6 5 6 7 9 8 9 9 9 7 6 7 7 7 8 7 7 8 9 8 7 7 7 7 8 7 7 9 9 8 9
9 10 10 11 11 12 15 14 14 12 13 15 13 14 13 13 16 14 15 15 13 9 14 15 16 18 18 20 19 17 14 14 15 15 15 15 15 14 13 14 13 14 15 14 12 12 12 11 10 6 5 5 5 6 6 7 8 7 8 8 8 8 9 9 7 7 6 6 6 7 7 8 9 9 8 7 7 7 6 7 7 6 8 10 9 10 10
9 12 11 12 13 11 12 12 13 15 17 17 16 16 14 15 13 14 14 13 11 13 11 14 15 16 16 17 15 15 13 12 12 14 14 13 13 12 11 6 3 5 5 4 5 5 5 6 6 7 8 7 7 6 6 6 6 7 8 9 10 10 9 8 8 7 6 6 6 7 8 9 8 7 7 7 7 7 8 7 5 7 10 8 10 9 9
8 11 13 9 7 13 10 4 12 17 20 19 19 17 16 16 13 14 13 16 14 12 13 16 18 17 16 14 14 12 12 12 12 13 13 11 10 9 6 5 5 6 9 9 8 7 7 7 6 7 7 7 7 5 5 6 6 7 7 9 8 9 9 10 9 7 5 6 7 9 8 7 6 7 7 9 8 7 6 5 6 8 7 9 9 9 10
8 10 10 12 16 14 9 15 15 13 15 14 17 19 19 19 18 19 19 20 19 19 18 16 17 16 15 15 19 19 17 16 15 13 12 11 9 8 7 8 9 8 7 7 8 9 8 8 7 8 9 8 10 11 11 10 8 8 7 7 8 8 9 9 7 6 6 6 7 8 8 7 7 8 9 9 8 8 7 8 9 10 9 9 10 9 9
6 7 8 13 16 8 6 7 9 11 11 12 13 17 18 20 21 21 20 18 17 16 16 16 15 16 20 18 19 19 17 13 12 12 12 12 9 4 4 4 5 5 6 6 6 7 7 7 8 6 6 7 8 9 11 11 10 8 7 8 8 7 7 8 8 7 6 6 7 8 8 7 8 9 9 10 11 9 8 8 8 6 7 7 9 9 9
11 10 13 17 10 14 12 10 8 6 11 9 12 16 16 16 17 17 17 17 17 16 16 16 16 16 16 15 14 10 12 10 10 11 6 5 9 7 6 7 8 9 8 8 7 7 7 8 9 9 10 10 9 9 10 10 10 10 9 10 9 9 8 7 7 7 7 8 8 9 8 8 9 9 10 10 10 6 7 8 9 8 9 8 9 9 9
10 12 13 11 10 15 14 16 16 14 15 16 16 15 18 10 13 11 14 15 15 17 17 17 17 14 14 14 12 7 9 8 3 10 9 8 9 8 7 8 8 8 8 9 9 10 10 10 9 10 11 11 11 10 10 9 9 9 9 8 8 10 11 12 11 10 8 8 8 9 8 9 10 10 9 8 9 6 8 9 10 10 9 8 8 9 10
9 13 12 11 12 13 9 12 12 14 14 17 15 13 17 5 11 11 14 16 15 14 13 13 9 9 11 11 9 7 5 10 10 9 10 8 7 8 8 9 9 9 10 9 8 9 9 9 11 11 11 11 10 10 10 9 8 8 6 8 11 11 12 12 12 11 11 10 9 9 10 10 9 9 9 9 8 6 7 8 10 8 7 8 9 8 9
13 13 15 14 6 10 7 10 11 11 11 9 7 14 11 4 14 14 15 15 12 11 12 13 13 12 13 8 3 6 7 7 10 9 8 8 8 9 8 7 8 9 9 8 8 8 9 9 11 11 10 9 8 9 9 9 10 9 10 11 11 11 11 11 10 10 9 10 10 10 10 11 9 9 8 8 7 7 7 7 8 8 8 8 9 9 8
17 20 15 12 10 9 7 9 12 12 9 6 12 14 6 13 14 11 11 13 10 11 12 11 7 6 7 6 5 6 5 7 8 8 6 7 6 7 9 8 8 7 8 6 7 7 7 8 9 9 8 9 8 7 8 8 9 10 12 13 13 12 11 11 11 11 10 9 11 12 9 10 10 9 8 8 7 6 7 7 6 8 8 7 8 9 7
14 13 14 13 11 2 7 7 12 9 4 10 11 7 7 9 13 8 9 11 10 11 10 8 7 10 11 6 6 7 7 6 5 6 5 4 5 4 4 7 9 9 8 7 8 7 7 8 8 7 8 7 8 9 8 8 10 12 12 12 11 12 12 11 11 11 11 11 9 10 10 9 10 11 7 6 6 6 7 6 7 8 7 7 7 8 6
5 6 10 10 12 1 9 11 12 8 2 3 2 8 8 7 9 10 9 9 9 10 13 10 10 13 12 6 6 5 5 5 5 5 5 5 6 7 7 8 9 9 7 8 8 9 8 9 9 9 10 9 9 10 10 12 12 12 13 13 12 12 11 10 9 9 9 10 10 8 9 8 8 10 8 6 7 6 6 6 7 8 8 6 6 7 5
10 11 11 8 1 1 2 8 4 4 1 3 5 3 9 5 6 8 10 10 9 8 7 11 13 10 12 12 12 10 7 7 6 5 5 5 4 5 5 6 9 9 7 8 8 8 8 9 10 10 11 10 10 11 12 13 13 13 12 13 13 12 11 11 10 8 7 8 8 8 8 8 7 8 8 7 6 6 5 6 6 7 7 5 5 6 6
2 5 9 11 15 14 5 2 2 3 5 2 1 2 5 7 7 6 6 9 10 8 11 11 10 13 11 11 10 8 8 7 7 8 7 7 7 7 8 8 8 7 8 9 9 10 8 10 10 10 10 10 11 11 13 13 13 14 14 13 12 12 12 11 10 8 6 6 8 6 7 7 7 7 7 6 7 5 4 4 5 6 7 4 6 6 4
8 12 15 15 12 7 5 3 2 6 4 3 3 2 5 5 5 4 5 8 8 9 7 9 10 7 9 12 12 8 6 5 4 5 5 6 6 6 7 8 9 7 7 7 8 10 10 10 11 10 10 10 12 12 13 13 14 14 13 12 11 11 9 9 10 9 6 6 6 6 8 8 8 8 9 8 7 6 6 5 5 5 6 5 5 4 3
7 13 5 4 9 14 17 18 19 11 4 3 3 2 4 6 6 6 5 7 8 8 8 8 9 9 7 10 9 7 7 5 6 7 8 8 9 10 10 9 9 8 7 9 9 11 11 11 11 11 10 10 10 12 13 13 13 13 13 11 11 9 8 9 8 8 7 6 6 6 8 7 7 7 8 8 7 7 7 7 7 6 6 4 3 3 3
6 12 12 12 14 17 16 13 5 1 4 3 5 6 6 6 6 7 8 7 7 6 7 5 6 8 8 7 7 7 7 6 6 7 7 8 8 8 8 8 9 7 7 7 9 10 10 10 11 11 10 11 11 12 12 12 13 13 12 12 11 9 10 8 8 9 7 8 7 5 7 7 7 8 7 6 6 7 7 6 6 6 6 4 2 3 3
14 16 17 16 16 14 6 1 3 3 4 5 5 5 5 6 7 9 7 5 7 6 6 4 4 7 7 5 6 7 7 6 6 6 6 7 7 8 9 9 8 9 7 7 7 8 8 9 10 10 10 10 10 12 12 12 12 12 12 14 12 10 10 9 9 9 7 7 6 5 5 6 6 7 7 7 7 5 6 5 3 4 1 4 5 3 4
13 12 12 7 11 11 7 9 14 7 5 5 7 7 9 9 10 8 6 6 4 5 4 3 4 5 6 4 4 5 5 4 6 6 5 5 6 6 6 6 5 5 5 5 5 6 7 8 9 10 10 11 10 10 11 11 11 11 12 12 11 11 10 9 9 9 8 7 6 5 4 4 4 4 10 14 10 6 5 10 13 12 7 4 2 3 7
13 12 12 11 13 16 15 13 8 5 5 5 8 11 11 11 5 2 3 7 6 5 4 1 2 5 5 5 4 4 3 3 4 5 6 6 5 6 6 5 6 6 7 6 5 5 8 8 8 9 10 10 11 12 12 12 11 10 11 10 9 9 11 10 11 10 8 8 7 5 4 3 3 4 4 6 14 17 14 12 14 15 15 15 13 10 9
16 16 16 12 11 13 13 11 10 10 7 8 10 9 8 5 2 1 2 3 5 6 4 2 1 3 5 5 4 4 4 4 5 6 5 5 5 5 5 6 7 7 7 8 8 8 9 8 8 9 9 9 10 12 12 12 12 10 10 9 8 9 9 10 11 10 9 8 8 7 7 5 4 3 3 4 5 11 16 17 17 18 17 16 14 13 12
12 11 12 13 13 13 11 10 9 8 8 7 7 6 4 2 0 1 1 3 1 3 5 4 2 3 4 5 4 4 4 5 5 6 5 5 6 6 6 6 7 7 8 9 8 8 8 9 9 8 8 9 9 11 12 12 12 11 11 9 9 8 9 10 9 10 9 9 8 8 8 9 8 7 5 3 3 4 5 11 16 19 18 17 15 14 13
13 13 12 9 11 13 13 12 12 6 4 4 3 5 2 1 1 2 1 3 2 3 4 5 6 7 6 5 5 5 5 5 6 5 4 5 5 5 6 6 7 7 7 7 8 9 9 9 9 8 8 9 11 12 11 12 11 10 11 10 9 7 8 9 9 8 9 9 9 8 7 7 6 6 6 6 5 4 3 4 6 9 13 17 16 14 14
9 10 13 15 15 15 9 7 9 7 8 5 5 4 1 3 2 2 2 2 2 3 4 5 6 6 5 6 6 6 5 6 5 5 4 5 6 7 6 7 8 7 5 7 7 9 10 9 9 9 8 8 10 10 11 12 11 10 10 10 9 10 14 11 7 7 7 7 8 8 8 7 7 7 7 7 6 7 7 6 5 5 6 8 12 17 11
14 7 3 5 9 9 11 12 11 9 7 3 4 3 3 3 1 2 1 2 3 4 4 5 6 7 5 6 6 6 6 6 6 6 6 7 6 6 7 8 8 7 6 6 7 8 8 8 8 8 8 9 10 10 11 12 11 10 10 9 9 9 9 11 9 8 8 7 7 7 7 7 7 6 6 6 7 6 6 5 6 6 6 7 7 10 16
4 5 7 4 6 9 11 12 11 9 2 3 2 3 2 2 2 2 3 4 4 4 4 5 5 5 5 5 6 5 6 6 6 7 7 7 7 8 8 8 8 7 6 7 7 8 8 8 9 9 8 10 11 11 11 11 9 9 9 9 8 8 8 9 8 7 7 7 6 7 7 6 5 5 5 5 5 5 6 6 6 6 6 7 8 9 10
8 9 9 11 10 10 11 12 9 3 4 4 4 4 5 3 2 4 4 4 4 4 5 5 5 6 6 6 7 7 7 7 6 6 6 7 7 7 8 8 7 4 5 6 8 9 9 9 9 9 9 11 11 11 12 11 9 9 9 9 8 8 8 9 8 8 7 7 7 9 6 6 5 5 4 5 5 5 5 5 6 6 7 7 7 7 8
9 8 9 10 11 10 10 8 3 4 5 5 5 4 5 4 4 3 3 3 4 3 5 5 5 5 6 6 7 7 6 6 6 5 5 6 7 7 8 9 7 7 7 8 9 9 9 8 8 8 9 11 10 11 11 11 10 9 9 8 7 12 14 15 10 8 7 7 7 7 7 6 6 6 6 5 5 5 5 5 6 6 6 6 6 6 6
11 11 9 4 9 12 8 5 5 5 5 5 5 6 6 5 4 4 4 3 4 4 4 5 6 7 6 7 6 7 6 6 6 3 4 5 6 6 6 6 6 7 6 4 5 6 7 7 8 9 10 9 10 10 10 10 10 9 8 9 9 8 10 15 8 9 8 7 7 7 8 7 7 6 6 6 6 5 5 4 5 5 4 5 6 6 6
8 12 8 10 13 10 9 8 7 6 6 6 5 5 5 5 4 4 4 4 4 4 4 5 5 6 6 7 6 7 7 7 6 4 6 6 6 6 6 5 4 5 6 3 3 4 5 7 8 8 9 9 8 9 9 9 9 8 8 8 7 8 8 9 11 8 7 7 7 7 6 6 6 6 6 6 6 6 5 5 5 5 6 6 5 5 7
3 4 6 4 3 6 8 10 8 7 5 3 4 4 4 5 4 4 5 5 4 5 5 5 6 6 6 6 6 6 7 7 6 6 7 7 7 7 7 6 6 6 5 4 2 4 4 5 6 7 8 8 7 7 8 9 8 7 7 7 7 7 7 6 8 6 6 7 7 8 6 6 6 6 6 6 5 5 6 6 6 5 4 4 5 5 9
4 5 4 2 2 4 5 5 7 7 8 6 6 5 5 5 5 5 6 5 5 5 5 5 5 6 6 6 6 6 6 6 6 7 8 8 8 8 7 8 8 6 5 4 3 5 5 5 6 8 8 7 6 7 8 8 8 7 7 7 7 6 7 7 6 7 7 7 7 6 7 6 6 7 7 7 6 6 6 6 6 6 5 5 4 4 6
3 4 3 4 3 4 2 3 3 5 5 5 5 5 5 5 5 5 6 6 5 5 4 4 5 5 5 5 5 6 6 5 6 7 7 8 8 7 8 8 8 7 5 4 3 5 6 5 10 13 8 6 6 7 8 8 8 7 6 7 6 7 7 6 7 6 6 6 7 7 7 9 9 8 8 7 7 7 6 6 5 5 5 5 5 5 5
2 2 2 3 4 4 3 2 2 3 4 4 5 4 5 5 4 5 5 5 5 4 4 4 4 5 5 5 3 5 5 4 4 5 7 7 7 7 8 7 7 5 5 5 4 6 6 5 11 14 8 5 6 6 7 14 8 7 6 6 6 6 6 6 6 6 6 6 6 6 8 7 6 6 7 6 6 6 6 6 6 5 5 5 5 5 5
2 1 2 3 4 4 4 3 2 2 3 4 3 3 2 4 5 4 4 4 4 4 4 4 4 4 5 4 3 4 6 5 5 6 7 7 5 7 8 5 5 4 5 4 4 6 5 7 12 9 6 5 6 6 8 14 13 8 6 6 6 6 7 6 7 7 7 6 7 5 6 6 6 6 6 6 6 5 6 5 6 5 5 5 5 5 5
3 2 2 3 2 2 3 3 2 2 2 3 4 3 2 4 5 5 4 4 4 3 4 4 5 5 4 4 5 5 5 5 6 7 7 8 5 4 7 7 7 4 3 4 5 5 6 6 6 5 5 5 6 5 7 12 12 6 6 5 6 5 6 6 6 7 7 7 6 6 6 6 5 5 5 5 5 5 7 7 6 6 5 5 5 5 5
3 4 4 5 3 2 3 4 4 3 2 1 3 3 4 5 5 5 5 4 3 3 3 3 5 4 5 4 5 6 6 6 6 6 8 6 6 7 7 4 2 2 2 6 5 5 7 10 6 4 4 5 6 5 7 10 9 6 6 5 5 6 5 6 5 5 5 6 6 7 6 6 5 6 5 5 5 6 6 6 5 6 5 5 5 5 5
4 4 5 4 4 4 4 5 5 5 4 2 2 2 2 4 5 5 5 6 6 5 4 4 3 4 4 5 5 7 7 8 6 6 5 3 5 5 5 5 1 2 3 4 5 6 7 6 4 4 3 5 5 6 6 8 7 5 5 5 5 5 5 5 5 5 6 6 7 5 6 6 6 6 6 5 5 5 5 5 5 5 5 5 5 5 5
4 5 4 4 4 4 4 4 5 6 4 3 1 1 4 3 4 5 4 4 5 5 5 5 4 5 5 5 5 6 7 8 7 6 4 4 5 5 6 2 2 4 7 8 7 7 5 5 4 5 4 5 5 9 10 7 5 5 5 5 5 5 4 5 5 5 6 6 5 5 6 5 5 5 5 6 6 6 6 6 6 6 5 5 5 5 5
4 5 4 4 4 4 4 5 5 6 7 4 1 3 5 4 3 4 4 4 4 5 6 5 5 5 5 5 5 6 7 6 6 6 6 5 6 6 6 4 5 6 9 7 6 5 6 5 4 2 7 7 7 10 9 5 4 5 5 5 5 5 5 4 4 4 5 4 5 5 5 5 5 5 5 5 5 5 5 6 6 6 6 6 5 4 5
4 2 3 4 5 4 4 4 5 5 6 5 4 7 6 4 3 2 4 4 4 4 4 5 5 5 5 5 4 5 6 6 6 6 5 8 6 1 0 2 4 6 9 6 5 6 6 5 3 7 10 10 10 10 7 4 4 5 4 5 5 4 4 4 5 4 5 4 4 5 5 6 5 5 4 5 5 5 4 4 5 5 5 5 5 5 5
4 3 4 5 6 4 4 4 4 6 7 7 7 8 4 1 2 3 4 5 5 5 4 5 5 5 5 4 5 5 6 6 6 5 6 5 5 2 0 2 4 4 7 8 6 5 5 5 6 10 9 10 11 10 5 5 5 5 4 5 5 4 4 4 5 4 4 4 3 4 6 4 4 4 3 4 5 4 4 4 4 4 3 3 4 5 5
6 4 5 5 6 6 5 5 5 4 5 6 6 3 1 1 4 5 7 6 5 5 5 5 5 6 6 6 5 6 6 7 7 5 7 6 6 4 4 6 5 4 9 9 5 6 5 8 10 10 10 10 10 7 5 5 6 5 4 5 4 6 4 4 3 4 4 3 4 4 4 5 4 4 4 3 3 3 3 5 5 4 4 3 4 3 2
5 7 7 6 8 7 7 6 4 5 5 4 6 6 4 6 5 5 7 7 8 6 6 6 6 7 5 6 5 5 6 6 6 7 3 2 2 3 6 7 9 9 8 6 6 6 6 6 7 10 10 11 10 5 5 5 5 5 6 4 4 4 5 3 4 4 4 4 5 5 5 5 4 4 5 4 5 4 3 3 3 4 3 4 3 4 4
7 7 7 7 9 9 6 6 5 4 4 1 2 5 5 5 6 7 7 4 5 5 5 5 6 6 6 6 5 5 6 3 6 6 2 3 4 4 5 4 6 10 11 8 8 7 10 11 10 10 11 10 6 5 5 5 4 4 5 5 4 6 4 4 4 4 4 4 4 5 5 5 4 4 3 4 5 4 4 3 3 3 3 3 4 3 2
6 8 9 8 5 6 5 4 4 4 2 2 4 4 4 6 7 6 5 6 8 7 5 7 9 8 5 5 4 4 4 5 5 6 4 5 6 6 6 6 9 10 8 6 6 5 8 10 9 10 11 8 5 5 5 5 5 5 5 5 4 3 5 4 4 4 3 4 4 4 4 4 4 3 3 4 4 3 4 4 3 2 2 2 2 5 3
5 4 5 5 4 4 4 5 6 4 3 4 5 4 5 4 6 6 5 6 6 6 6 6 4 6 6 6 2 3 3 4 5 6 7 7 7 7 6 6 6 8 8 6 4 4 6 8 8 8 7 5 6 5 4 5 4 4 4 5 3 3 4 6 5 5 3 3 3 3 2 3 3 3 4 3 3 2 2 2 2 5 6 4 4 2 2
6 6 6 6 4 4 4 5 6 5 4 5 4 4 3 4 5 7 5 6 6 6 7 7 5 4 5 4 5 4 4 4 5 5 6 6 4 5 6 6 6 6 6 5 4 5 6 5 5 6 5 5 6 4 4 3 4 4 4 4 4 4 4 6 5 3 3 3 2 2 3 3 2 2 2 2 2 1 2 3 2 1 2 2 1 1 1
7 6 6 6 6 5 5 6 4 3 3 3 4 3 3 4 5 6 5 5 4 5 5 7 10 5 3 5 6 5 4 6 6 4 6 7 5 5 7 6 6 6 6 5 6 5 6 4 5 6 6 5 4 4 5 6 5 4 4 5 4 4 5 6 5 4 3 3 3 4 3 2 2 2 3 3 2 2 1 1 1 2 1 2 2 2 2
Wind_Direction
245 247 257 265 268 259 259 256 250 252 243 234 233 243 244 244 241 258 275 272 266 266 267 277 279 275 271 269 273 270 271 274 274 275 275 275 274 273 269 265 265 270 274 277 280 280 281 285 287 289 292 293 285 276 269 267 268 254 249 245 247 245 244 242 243 239 240 244 247 249 244 241 242 240 238 239 241 241 239 244 243 240 236 235 235 233 230
259 253 251 250 253 258 252 247 250 249 250 251 251 253 252 247 253 260 260 263 260 257 259 261 268 271 268 268 265 266 264 265 269 267 263 263 264 260 260 261 260 259 257 259 265 274 274 269 271 272 273 276 281 283 281 272 259 262 258 250 244 246 244 242 244 241 239 243 244 245 247 243 242 241 239 237 235 238 237 235 242 243 245 243 238 234 231
263 256 249 247 247 250 257 252 253 255 256 260 252 258 257 257 257 253 252 251 256 253 255 257 262 262 264 267 265 260 259 258 257 259 259 258 261 261 256 255 256 255 254 250 251 259 270 272 263 261 261 268 278 290 290 288 274 244 222 227 227 230 240 245 247 245 241 241 238 243 246 250 252 249 245 239 235 237 238 235 237 240 238 244 240 239 235
272 269 269 263 258 252 251 257 255 254 253 254 245 243 235 239 250 250 251 252 256 258 249 248 249 261 262 264 262 259 258 258 259 259 262 262 260 258 254 252 252 256 254 246 242 248 256 268 279 276 276 284 297 288 284 290 292 303 306 295 276 260 252 256 256 251 246 245 245 250 252 249 249 248 250 247 244 241 241 241 239 235 237 237 241 240 240
258 266 260 261 264 268 261 249 249 246 243 243 246 246 245 242 245 252 252 254 250 249 251 261 250 246 249 252 256 264 264 262 260 259 256 254 256 257 263 271 308 302 297 284 276 281 286 288 300 308 306 303 292 286 297 285 292 295 287 280 279 277 275 269 267 263 262 256 251 254 251 249 252 258 256 258 256 252 245 241 231 229 236 235 239 240 239
275 277 280 286 292 259 246 237 223 225 238 239 243 247 250 250 240 245 242 253 254 253 247 246 255 254 254 260 264 259 261 266 265 263 267 273 276 279 281 288 301 299 296 292 287 284 291 303 315 320 328 328 319 308 293 298 299 288 285 284 277 271 272 273 274 277 269 256 255 253 254 258 262 267 265 257 255 250 255 247 231 243 241 237 241 238 236
266 278 293 287 259 256 246 244 249 249 246 242 245 248 245 248 246 247 247 248 246 244 246 250 259 265 270 267 268 269 267 266 271 276 276 275 281 275 266 271 281 295 314 341 350 355 356 347 342 348 341 338 330 325 323 316 308 303 297 288 284 279 276 278 286 293 282 261 259 263 265 263 261 259 256 261 259 250 233 235 236 237 239 239 240 239 241
266 261 244 256 252 264 262 267 254 245 252 247 253 253 241 240 242 246 250 250 251 252 252 252 254 258 259 260 258 261 267 267 269 276 272 270 274 307 14 36 31 20 10 3 357 343 336 345 340 343 338 337 338 326 324 320 320 318 316 311 303 299 293 291 292 288 277 272 267 268 268 267 263 261 261 255 256 248 228 236 235 234 245 231 242 240 237
247 238 244 250 289 292 281 281 249 230 234 228 226 252 245 238 243 245 252 254 255 257 259 258 258 259 262 263 266 264 265 270 256 258 293 40 59 52 28 23 20 14 4 355 346 338 342 353 358 357 349 347 339 327 322 320 325 326 326 320 315 311 305 301 297 295 291 284 281 276 272 270 263 260 260 263 260 251 249 249 247 236 239 231 229 234 236
218 246 259 259 254 253 252 241 251 245 249 247 246 252 263 248 259 251 254 253 253 254 256 257 258 261 268 268 273 268 257 259 320 55 60 48 47 42 27 18 11 0 357 351 354 357 355 356 6 1 354 348 340 330 325 326 327 325 322 316 332 340 337 337 335 330 318 302 292 286 282 270 265 264 260 261 263 244 236 250 251 244 241 242 237 228 230
238 236 243 248 253 252 251 257 249 249 248 251 256 258 265 263 267 262 259 259 258 260 264 267 271 266 261 262 265 288 357 42 50 51 37 39 35 35 36 21 1 355 356 351 342 351 357 1 2 357 349 343 339 329 325 327 326 320 330 349 342 330 321 317 318 318 316 313 302 293 288 281 273 272 265 259 261 253 242 244 252 254 237 238 247 234 229
239 247 247 250 231 263 247 255 257 257 263 272 270 260 260 18 348 346 351 332 316 305 286 271 255 251 259 277 345 26 47 64 59 53 33 28 19 15 18 24 14 353 339 345 356 4 360 10 354 354 347 343 339 327 328 332 332 340 343 334 324 315 311 312 311 309 305 304 299 294 289 288 285 274 273 276 270 264 256 244 257 255 246 242 249 250 233
245 243 252 262 263 263 288 308 329 321 299 285 264 260 349 332 325 344 353 340 359 4 359 5 343 349 20 334 333 20 37 50 39 45 36 32 38 20 8 4 18 357 336 344 352 6 355 11 360 347 344 344 335 334 335 334 335 336 332 324 317 314 312 312 314 313 312 307 303 300 295 293 293 287 280 279 281 272 266 263 255 259 253 250 251 256 243
253 257 257 256 268 274 31 0 356 326 331 252 260 357 302 307 323 338 359 336 353 4 355 340 332 310 318 319 10 6 25 51 48 39 31 26 29 32 16 10 11 359 342 351 350 358 355 9 353 348 346 344 336 339 336 334 330 328 319 312 308 309 311 312 313 313 311 308 303 300 301 302 299 292 291 291 280 276 270 264 260 258 259 252 253 260 255
286 255 263 262 258 36 29 353 347 58 66 350 341 284 317 317 319 336 343 341 336 5 336 330 321 319 319 336 357 355 14 40 37 34 23 24 17 11 6 10 10 2 352 354 352 350 348 358 353 354 354 351 347 344 339 332 329 322 315 313 309 307 303 301 302 304 305 306 307 306 304 303 297 294 299 303 291 286 278 269 262 263 260 258 256 263 260
267 263 255 251 137 256 345 16 298 327 110 344 328 320 294 330 327 338 329 330 340 338 326 315 317 313 313 327 344 347 1 16 23 27 24 27 21 17 25 23 6 356 359 356 355 350 346 359 354 356 359 353 349 343 336 334 326 318 315 313 311 307 302 300 302 305 307 309 309 306 307 310 309 306 309 306 300 292 277 266 271 270 270 265 257 258 255
216 267 280 292 308 320 341 88 333 270 263 164 212 273 274 311 331 336 318 310 322 330 323 316 314 317 323 326 327 338 337 356 11 11 8 13 12 16 15 19 7 5 10 357 354 350 350 2 357 353 356 353 344 344 337 331 325 323 318 312 307 303 302 302 305 307 316 322 320 319 322 325 327 321 318 322 314 306 302 288 277 273 275 267 248 249 247
266 262 261 280 290 297 320 300 240 291 316 143 165 251 312 302 301 312 289 299 298 305 314 313 310 305 318 318 315 324 336 356 3 15 4 4 10 18 13 12 11 358 6 7 2 353 346 357 359 351 353 355 351 341 333 330 326 319 312 307 304 304 307 311 310 314 330 335 335 345 358 353 353 346 338 325 314 316 324 306 288 280 289 279 262 249 240
305 271 286 326 321 318 315 313 307 314 117 197 191 235 245 270 272 260 256 263 278 285 297 289 291 304 316 305 305 317 326 351 9 9 7 1 8 14 10 5 2 359 5 7 2 356 346 352 357 348 350 349 348 340 335 331 325 317 308 300 305 314 332 326 326 328 341 348 4 22 16 7 2 360 355 357 4 8 1 354 341 319 294 275 258 241 198
245 276 297 303 302 295 289 287 303 196 217 222 225 231 253 250 247 240 255 251 257 261 268 278 297 297 307 308 322 327 326 345 6 1 1 0 2 13 16 0 1 357 7 8 3 358 350 350 352 344 343 344 347 342 336 333 326 321 316 321 319 333 339 338 338 337 342 356 11 35 34 25 20 6 4 1 18 16 359 338 327 323 321 303 272 216 139
276 280 281 279 279 275 268 219 222 228 235 258 269 272 277 279 277 271 258 228 249 260 261 282 291 292 297 322 337 332 322 343 350 353 353 357 4 0 5 3 359 360 357 1 1 2 350 353 347 341 342 341 345 343 338 333 331 328 328 328 326 340 343 344 345 340 346 353 4 31 47 44 39 30 15 16 16 10 1 337 310 282 308 41 9 35 87
273 273 283 300 296 297 291 294 305 289 224 244 281 299 297 297 293 282 279 284 276 263 266 278 280 285 293 318 329 317 318 337 337 342 349 350 0 4 7 359 346 344 340 353 351 356 355 356 350 342 342 343 343 341 339 333 334 335 334 335 345 349 348 347 349 345 348 349 359 15 30 34 22 21 33 38 35 24 348 8 25 37 54 58 43 87 81
273 279 281 288 286 285 281 289 301 294 290 282 287 292 291 292 278 303 304 292 300 280 254 234 292 290 301 302 317 305 313 332 345 341 348 349 356 2 7 358 348 349 339 345 344 355 360 359 351 346 342 345 345 342 341 338 334 333 339 343 345 347 351 345 347 347 347 348 347 355 13 32 35 26 6 14 31 34 38 36 41 45 53 62 68 72 95
271 276 279 282 281 282 293 299 301 300 299 292 285 283 290 276 259 221 262 266 278 289 306 285 256 289 302 301 313 311 328 349 4 346 344 2 3 6 10 8 342 346 346 349 354 355 356 353 349 345 342 344 350 343 341 336 334 332 342 348 346 349 350 343 342 348 347 347 348 352 350 355 7 14 9 3 2 28 32 38 42 46 50 55 63 72 80
275 283 287 286 287 291 295 297 296 293 303 316 306 299 311 313 291 216 261 282 311 307 300 303 330 350 328 322 350 344 352 353 3 345 354 11 8 19 10 4 348 352 353 345 344 351 351 350 349 346 343 344 348 345 344 340 333 336 341 346 342 347 351 348 345 346 348 350 351 354 353 357 357 357 353 357 3 343 14 32 36 39 40 43 49 56 64
280 283 287 293 295 292 293 296 289 305 352 321 285 289 234 98 41 43 335 5 344 9 353 345 342 336 348 346 350 344 4 360 5 359 4 11 10 16 12 3 350 341 348 347 341 346 348 346 346 346 345 347 351 344 344 340 339 339 343 341 340 346 353 346 348 349 353 351 350 351 352 355 350 352 349 348 337 337 350 2 16 27 29 31 34 44 53
287 292 299 298 289 287 295 310 306 323 319 311 264 277 82 140 140 111 63 46 31 27 23 360 352 337 342 358 355 348 14 4 9 358 7 15 19 15 3 351 343 337 349 353 348 344 347 344 341 345 343 349 348 342 342 341 337 342 347 346 345 345 351 355 352 348 345 346 348 350 353 355 356 357 357 350 358 5 6 4 4 12 8 13 19 30 39
281 303 35 281 290 304 304 307 301 301 302 332 327 286 221 124 88 80 69 39 32 22 32 15 6 357 353 353 4 349 5 9 7 356 6 12 9 3 357 349 342 343 1 356 352 346 346 341 340 339 341 349 345 342 341 339 338 342 347 350 352 352 351 351 351 349 347 345 345 349 353 351 352 355 354 359 7 12 13 15 12 7 4 9 6 17 28
358 353 325 300 276 283 290 291 290 286 331 22 354 16 4 118 179 120 61 45 20 22 12 4 8 9 1 350 4 358 358 350 360 6 8 4 3 359 354 350 343 349 11 357 352 349 347 344 345 340 341 351 343 342 341 338 340 344 346 350 348 348 352 350 342 342 341 341 341 350 351 354 354 354 358 4 5 14 22 22 25 25 26 14 7 8 13
329 330 323 307 303 299 302 297 299 5 30 10 16 21 10 302 165 83 62 36 26 21 8 352 360 6 6 359 358 355 349 343 348 5 10 3 2 0 356 349 340 346 2 358 357 349 348 346 347 343 343 346 341 342 342 341 340 342 344 347 348 345 349 345 340 339 344 345 348 351 349 354 351 355 4 14 18 19 21 23 33 37 40 34 30 20 7
309 306 301 296 300 299 281 294 13 15 17 14 18 26 19 41 80 78 57 31 28 13 1 1 0 356 359 356 340 337 337 336 337 355 14 5 360 2 359 355 357 353 356 351 349 345 344 343 343 339 341 338 339 344 346 346 342 341 347 349 348 347 348 352 351 343 343 344 349 353 354 355 352 355 359 4 13 22 31 39 46 48 48 41 33 26 4
313 315 311 330 355 338 345 13 353 10 10 9 25 26 19 12 26 25 16 16 12 1 357 1 6 358 345 336 331 329 332 336 325 337 32 8 358 355 358 347 341 337 327 340 349 343 340 338 336 336 338 334 338 346 350 344 345 345 347 348 346 340 345 351 349 349 346 348 350 357 357 357 357 358 353 1 5 10 18 37 55 56 49 44 38 18 7
333 331 337 347 342 345 339 357 357 359 11 14 19 17 15 17 13 16 6 1 352 2 10 358 351 341 336 334 334 339 341 339 330 6 6 351 347 346 344 337 327 314 312 319 359 346 345 337 332 331 333 334 332 345 349 343 344 344 338 342 337 336 342 346 352 349 348 352 355 359 353 354 352 353 357 359 2 4 11 27 50 49 44 42 34 17 24
299 265 301 320 306 311 321 320 336 346 356 27 26 18 15 13 11 8 6 358 356 357 358 347 339 341 340 339 342 345 349 351 354 349 344 342 337 336 334 329 318 303 291 301 16 4 343 329 325 331 332 329 330 345 340 342 345 342 334 332 335 335 338 336 348 349 354 358 355 352 351 352 354 356 352 355 354 0 15 23 34 47 47 43 33 21 23
292 287 294 311 343 336 329 329 344 351 346 357 2 10 18 13 8 4 1 3 351 338 328 332 333 332 335 338 349 352 359 350 333 329 329 331 329 328 328 325 322 322 324 330 31 12 343 324 332 331 334 326 335 346 335 340 348 341 331 332 336 336 334 338 346 353 355 358 351 351 353 358 3 4 2 1 4 11 20 25 26 30 32 28 24 19 23
351 336 343 339 334 321 340 8 7 355 351 351 351 348 355 7 3 353 348 334 321 320 321 324 324 324 331 352 351 348 340 332 326 321 319 320 321 325 323 324 324 322 323 323 357 13 336 329 340 344 339 328 345 337 337 344 348 344 332 337 339 335 336 344 343 351 353 355 1 1 0 6 6 4 10 6 10 12 16 19 24 25 23 21 16 18 18
44 334 321 318 312 318 351 25 17 360 345 336 334 342 346 346 341 323 314 306 311 310 314 323 329 338 341 330 317 307 308 316 314 311 306 312 317 320 319 316 314 315 335 334 329 1 329 332 341 344 332 327 338 329 335 352 348 344 337 336 337 340 340 347 347 351 357 356 1 358 5 2 360 357 5 8 12 9 9 7 16 20 21 19 17 17 16
285 211 312 320 312 329 347 356 353 341 345 346 350 328 324 317 311 298 291 302 309 319 330 336 325 314 305 292 304 315 315 312 311 312 311 312 320 320 313 310 308 337 332 293 329 337 316 331 340 337 318 333 337 326 339 349 353 346 338 340 342 341 343 346 350 351 356 357 356 356 3 1 5 358 0 7 7 10 12 12 12 17 13 13 13 22 24
338 349 337 340 309 313 333 333 346 334 7 324 317 306 339 323 298 305 294 306 332 350 338 329 324 312 307 324 324 317 312 313 319 315 311 309 311 305 284 284 278 278 270 296 327 312 319 325 336 325 329 332 331 325 343 344 350 350 339 342 345 344 348 349 351 351 353 354 353 3 4 1 4 3 8 7 7 15 12 17 18 18 16 15 20 21 20
339 355 336 333 325 340 339 335 336 339 334 290 300 315 332 324 325 321 310 323 345 15 340 320 323 321 325 330 322 314 310 311 305 300 293 300 311 303 291 290 269 319 334 334 328 312 311 319 324 317 321 335 328 331 345 341 343 343 343 344 349 347 346 348 349 352 351 352 354 0 359 359 359 3 7 9 8 17 11 10 14 19 21 16 19 19 24
350 345 327 341 334 357 341 332 325 327 308 312 316 298 322 323 317 313 316 326 325 331 318 310 306 304 304 303 298 295 301 302 297 285 277 299 305 305 307 305 327 314 320 328 314 313 313 309 315 323 324 336 329 337 337 336 341 339 340 343 343 350 348 347 355 351 350 353 354 359 358 354 356 2 3 6 9 16 13 10 13 21 26 21 15 19 22
335 332 333 332 341 330 330 314 306 315 323 319 284 287 311 310 293 284 293 301 297 297 298 299 284 286 288 292 294 298 300 296 295 293 282 264 282 302 307 289 15 331 333 335 322 319 310 312 323 333 331 329 324 331 337 332 335 334 338 343 343 339 347 345 349 348 350 351 352 353 355 358 360 0 2 3 3 8 12 9 10 15 18 16 19 16 19
334 334 327 322 306 318 321 317 313 306 310 296 257 312 317 303 280 270 273 275 281 295 301 298 300 301 297 296 298 303 297 300 310 314 310 289 264 233 240 273 333 321 324 322 323 312 313 300 330 340 327 328 324 329 336 328 330 336 335 338 340 341 340 345 345 342 351 353 352 348 352 354 359 2 4 4 357 355 4 11 7 4 8 6 5 13 12
312 311 302 306 307 307 312 307 314 317 308 302 323 310 301 287 259 258 284 293 299 296 294 295 298 294 292 288 295 296 299 310 311 312 321 308 327 343 187 257 276 300 315 312 318 309 306 309 320 324 326 324 326 329 325 318 327 330 328 333 331 336 335 335 345 349 343 354 347 344 351 351 350 358 359 355 353 357 0 9 0 357 3 2 2 7 4
308 303 303 294 293 300 294 295 295 296 292 299 305 295 280 255 292 296 294 291 291 292 293 288 289 290 288 286 276 268 277 283 281 292 299 302 318 296 285 308 310 309 306 312 304 302 294 301 315 322 319 322 324 328 320 314 323 321 319 326 324 326 330 331 337 344 339 335 340 342 348 344 342 348 351 353 348 351 342 351 352 348 359 4 8 8 2
290 288 286 295 292 282 272 269 270 285 294 301 300 298 204 313 329 322 306 302 303 293 275 277 280 278 274 274 277 279 276 274 267 243 230 226 242 269 323 332 304 303 306 309 299 295 295 311 316 315 316 317 321 318 309 317 316 317 317 317 318 320 321 323 327 325 322 322 324 336 330 322 334 330 336 339 331 339 339 355 356 343 352 3 357 348 8
290 297 285 265 274 278 286 284 275 272 287 331 347 334 324 329 326 316 304 296 278 272 281 284 275 272 258 248 252 288 302 309 303 283 252 247 270 304 308 314 312 308 307 304 296 289 289 302 309 317 322 319 318 310 299 304 307 310 311 306 304 304 310 314 321 315 316 321 326 327 327 331 337 337 338 343 338 341 345 351 347 343 346 358 352 6 13
294 293 292 294 293 293 299 303 334 336 337 325 297 294 303 324 328 314 302 298 298 300 300 297 289 284 279 261 235 226 226 255 312 311 43 24 332 321 308 302 299 307 306 303 302 306 314 312 313 321 320 318 312 305 320 313 306 309 309 307 309 307 306 316 318 316 322 327 328 323 320 326 325 327 332 334 334 341 338 341 333 335 354 2 355 353 5
268 262 276 280 274 282 312 328 324 319 308 330 344 310 323 326 316 309 314 332 332 326 316 307 303 301 306 282 224 224 233 209 205 253 298 329 313 309 298 297 298 300 297 288 293 293 308 313 319 321 318 317 313 309 311 310 311 308 302 300 300 310 317 306 294 295 305 308 304 310 309 311 314 324 330 331 329 327 332 332 332 340 335 343 348 342 357
288 286 295 296 301 311 321 318 307 286 294 326 313 304 311 325 327 322 328 320 314 309 306 298 311 317 300 303 294 274 239 225 242 259 275 281 286 281 282 282 282 289 298 299 299 306 318 319 320 315 312 313 311 309 302 300 304 305 301 305 314 316 305 299 304 314 313 305 310 307 308 306 308 320 328 321 309 306 317 319 324 331 342 353 335 338 349
305 294 280 276 276 275 266 248 255 279 294 283 280 290 302 307 291 297 312 304 313 327 321 317 302 287 304 317 312 302 292 278 264 261 272 277 279 291 295 297 300 298 298 299 304 300 302 303 298 295 303 304 306 307 309 307 305 305 306 307 303 301 299 303 304 302 298 300 292 297 296 300 303 300 300 296 297 303 306 315 321 320 324 312 326 321 328
265 262 272 274 273 270 265 271 261 247 241 249 263 286 302 295 300 301 299 302 332 326 318 323 318 309 308 310 299 297 299 294 292 297 293 293 292 286 289 301 307 306 306 307 302 297 291 291 305 310 308 309 307 310 315 314 310 303 300 302 306 303 299 298 296 294 296 305 313 305 302 304 304 310 303 304 304 308 307 305 302 309 312 314 308 319 320